Regional Weather Roundup
Issued by NWS Sioux Falls, SD

Home | Current Version | Previous Version | Graphics & Text | Print | Product List | Glossary Off
Versions: 1 2 3 4 5 6 7 8 9 10 11 12 13 14 15 16 17 18 19 20 21 22 23 24 25 26 27 28 29 30 31 32 33 34 35 36 37 38 39 40 41 42 43 44 45 46 47 48 49 50

000
ASUS43 KFSD 021202
RWRFSD

WEATHER ROUNDUP FOR SE SOUTH DAKOTA/SW MINNESOTA/NW IOWA
NATIONAL WEATHER SERVICE SIOUX FALLS SD
700 AM CDT WED SEP 02 2015

NOTE: "FAIR" INDICATES FEW OR NO CLOUDS BELOW 12,000 FEET WITH NO
SIGNIFICANT WEATHER AND OR OBSTRUCTIONS TO VISIBILITY.


SDZ038>040-050-052>070-021300-
SOUTHEAST SOUTH DAKOTA

CITY           SKY/WX    TMP DP  RH WIND       PRES   REMARKS
BROOKINGS      CLEAR     64  61  88 SE9       29.87S
CHAMBERLAIN    CLEAR     61  61  99 SE3       29.79S
6HR MIN TEMP:  61; 6HR MAX TEMP:  68;

HURON          CLEAR     67  66  97 SE12      29.77F
6HR MIN TEMP:  67; 6HR MAX TEMP:  70;

MADISON        FAIR      64  64 100 SE6       29.86S
MITCHELL       CLEAR     67  66  97 S6        29.81R
6HR MIN TEMP:  66; 6HR MAX TEMP:  68;

SIOUX FALLS    CLEAR     68  65  90 SE7       29.86S FOG
6HR MIN TEMP:  66; 6HR MAX TEMP:  74;

WINNER         FAIR      67  59  75 SE3       29.81R
YANKTON        CLEAR     66  63  88 SE6       29.83S
$$

MNZ071-072-080-081-089-090-097-098-021300-
SOUTHWEST MINNESOTA

CITY           SKY/WX    TMP DP  RH WIND       PRES   REMARKS
FAIRMONT       CLEAR     70  63  78 S10       29.92R
JACKSON        CLEAR     70  68  94 S9        29.92S FOG
LUVERNE        CLEAR     68  64  88 SE5       29.88S FOG
MARSHALL       CLEAR     64  61  88 SE7       29.87S
6HR MIN TEMP:  63; 6HR MAX TEMP:  72;

MONTEVIDEO     CLEAR     63  63 100 S5        29.89R
PIPESTONE      CLEAR     66  64  94 SE7       29.88S FOG
REDWOOD FALLS  CLEAR     67  64  90 S9        29.87R
TRACY          CLEAR     67  66  97 SE6       29.88S FOG
WINDOM         CLEAR     70  66  88 S8        29.90S
WORTHINGTON    CLEAR     66  63  88 S8        29.90S
$$

IAZ001>003-012>014-020>022-031-032-NEZ013-014-SDZ071-021300-
NORTHWEST IOWA

CITY           SKY/WX    TMP DP  RH WIND       PRES   REMARKS
DENISON        CLEAR     72  68  88 S14G21    29.90R
ESTHERVILLE    CLEAR     68  66  93 S10       29.92R
SIOUX CITY     CLEAR     69  64  84 SE9       29.87S
6HR MIN TEMP:  68; 6HR MAX TEMP:  74;

SPENCER        CLEAR     69  66  90 S9        29.91S FOG
6HR MIN TEMP:  69; 6HR MAX TEMP:  76;

$$

ABBREVIATIONS USED IN REMARKS
   TC - TEMPERATURE IN CELSIUS
  WCI - WIND CHILL INDEX
   HX - HEAT INDEX
  VSB - VISIBILITY



USA.gov is the U.S. government's official web portal to all federal, state and local government web resources and services.